Home > Weather > Nanning > Past weeks

Flag for China Weather for the Past 2 Weeks in Nanning, Guangxi, China

Now
81 °F

Clear.


Feels Like: 82 °F
Forecast: 57 / 72 °F
Wind: 1 mph from North

Location: Nanning Airport

Current Time: Feb 13, 2016 at 1:44:30 PM

Latest Report: Feb 13, 2016 at 1:00 PM


Visibility: 4 mi

Pressure: 29.77 "Hg

Humidity: 54%

Dew point: 63 °F

Location of NanningLocation

Historic Weather in Nanning — Graph

°F

Nanning Temperature Yesterday

Maximum temperature yesterday: 84 °F (at 2:00 PM)
Minimum temperature yesterday: 55 °F (at 7:00 AM)
Average temperature yesterday: 68 °F

High & Low Weather Summary for the Past Weeks

 TemperatureHumidityPressure
High84 °F (Feb 12, 2:00 PM)100% (Jan 29, 12:00 PM)30.45 "Hg (Jan 29, 12:00 PM)
Low34 °F (Feb 8, 7:00 AM)21% (Feb 8, 5:00 PM)29.65 "Hg (Feb 12, 4:00 PM)
Average55 °F76%30.14 "Hg
* Reported Jan 29 12:00 Noon — Feb 13 12:00 Noon, Nanning, Weather by CustomWeather, © 2016

Note: Actual official high and low records may vary slightly from our data, if they occured in-between our weather recording intervals... More about our weather records

Advertising

Nanning Weather History for the Previous 24 Hours

 ConditionsComfort  
Time TempWeatherWind HumidityBarometerVisibility
12:00 PM
Sat, Feb 13
77 °FClear.1 mph65%29.83 "Hg4 mi
11:00 AM70 °FFog.1 mph88%29.86 "Hg2 mi
10:00 AM64 °FFog.1 mph100%29.86 "Hg1 mi
9:00 AM63 °FFog.1 mph94%29.83 "Hg2 mi
8:00 AM57 °FFog.No wind94%29.80 "Hg3 mi
7:00 AM55 °FFog.No wind100%29.77 "Hg3 mi
6:00 AM57 °FFog.1 mph100%29.77 "Hg3 mi
5:00 AM59 °FFog.1 mph94%29.74 "Hg3 mi
4:00 AM61 °FFog.1 mph94%29.74 "Hg3 mi
3:00 AM61 °FFog.1 mph94%29.74 "Hg3 mi
2:00 AM63 °FFog.3 mph94%29.74 "Hg3 mi
1:00 AM63 °FClear.3 mph94%29.77 "Hg4 mi
12:00 AM63 °FClear.3 mph94%29.74 "Hg4 mi
11:00 PM
Fri, Feb 12
64 °FClear.1 mph94%29.74 "Hg4 mi
10:00 PM64 °FClear.3 mph88%29.71 "Hg10 mi
9:00 PM66 °FClear.6 mph88%29.71 "Hg10 mi
8:00 PM70 °FPassing clouds.3 mph78%29.68 "HgN/A
7:00 PM75 °FClear.8 mph69%29.68 "Hg10 mi
6:00 PM77 °FPassing clouds.10 mph65%29.65 "HgN/A
5:00 PM81 °FSunny.13 mph58%29.65 "Hg10 mi
4:00 PM84 °FPassing clouds.13 mph51%29.65 "HgN/A
3:00 PM84 °FPassing clouds.10 mph55%29.68 "HgN/A
2:00 PM84 °FPassing clouds.8 mph48%29.71 "HgN/A
1:00 PM81 °FPassing clouds.8 mph54%29.74 "HgN/A
Weather by CustomWeather, © 2016

See weather overviewHow to use our weather pages